| time (UTC) | temp F | wind direction | speed knots | gust knots | rain 1hr in | rain 24hr in | rain mn in | humidity % | barometer mb |
| 20260507115231 | 39 | 196 | 0.9 | 2.6 | 0.00 | 0.00 | 0.00 | 99 | 1015.4 |
| 20260507114733 | 39 | 200 | 0.9 | 1.7 | 0.00 | 0.00 | 0.00 | 99 | 1015.4 |
| 20260507114231 | 38 | 186 | 0.0 | 0.9 | 0.00 | 0.00 | 0.00 | 99 | 1015.4 |
| 20260507113732 | 38 | 180 | 0.9 | 1.7 | 0.00 | 0.00 | 0.00 | 99 | 1015.4 |
| 20260507113231 | 37 | 148 | 0.0 | 0.9 | 0.00 | 0.00 | 0.00 | 99 | 1015.5 |
| 20260507112732 | 37 | 172 | 0.0 | 1.7 | 0.00 | 0.00 | 0.00 | 99 | 1015.5 |
| 20260507112232 | 37 | 155 | 0.0 | 1.7 | 0.00 | 0.00 | 0.00 | 99 | 1015.4 |
| 20260507111732 | 37 | 111 | 0.0 | 0.9 | 0.00 | 0.00 | 0.00 | 99 | 1015.3 |
| 20260507111235 | 37 | 0 | 0.0 | 0.0 | 0.00 | 0.00 | 0.00 | 99 | 1015.2 |
| 20260507110733 | 37 | 0 | 0.0 | 0.0 | 0.00 | 0.00 | 0.00 | 99 | 1015.1 |
| 20260507110233 | 37 | 103 | 0.0 | 0.9 | 0.00 | 0.00 | 0.00 | 99 | 1015.1 |
| 20260507105733 | 37 | 96 | 0.0 | 0.0 | 0.00 | 0.00 | 0.00 | 99 | 1015.0 |
| 20260507105233 | 37 | 90 | 0.0 | 0.9 | 0.00 | 0.00 | 0.00 | 99 | 1014.9 |
| 20260507104732 | 37 | 0 | 0.0 | 0.0 | 0.00 | 0.00 | 0.00 | 99 | 1014.9 |
| 20260507104231 | 37 | 0 | 0.0 | 0.0 | 0.00 | 0.00 | 0.00 | 99 | 1014.9 |
| 20260507103732 | 37 | 0 | 0.0 | 0.0 | 0.00 | 0.00 | 0.00 | 99 | 1014.8 |
| 20260507103232 | 37 | 0 | 0.0 | 0.0 | 0.00 | 0.00 | 0.00 | 99 | 1014.8 |
| 20260507102731 | 37 | 93 | 0.0 | 0.0 | 0.00 | 0.00 | 0.00 | 99 | 1014.8 |
| 20260507102232 | 37 | 0 | 0.0 | 0.0 | 0.00 | 0.00 | 0.00 | 99 | 1014.8 |
| 20260507101731 | 37 | 0 | 0.0 | 0.0 | 0.00 | 0.00 | 0.00 | 99 | 1014.8 |
| 20260507101231 | 37 | 102 | 0.0 | 0.9 | 0.00 | 0.00 | 0.00 | 99 | 1014.8 |
| 20260507100731 | 37 | 88 | 0.0 | 0.9 | 0.00 | 0.00 | 0.00 | 99 | 1014.7 |
| 20260507100232 | 37 | 97 | 0.0 | 0.9 | 0.00 | 0.00 | 0.00 | 99 | 1014.7 |
| 20260507095731 | 37 | 0 | 0.0 | 0.0 | 0.00 | 0.00 | 0.00 | 99 | 1014.7 |
| 20260507095231 | 37 | 0 | 0.0 | 0.0 | 0.00 | 0.00 | 0.00 | 99 | 1014.8 |
| 20260507094733 | 37 | 0 | 0.0 | 0.0 | 0.00 | 0.00 | 0.00 | 99 | 1014.8 |
| 20260507094231 | 37 | 129 | 0.0 | 0.9 | 0.00 | 0.00 | 0.00 | 99 | 1014.8 |
| 20260507093731 | 37 | 115 | 0.0 | 0.9 | 0.00 | 0.00 | 0.00 | 99 | 1014.8 |
| 20260507093233 | 37 | 108 | 0.0 | 0.0 | 0.00 | 0.00 | 0.00 | 99 | 1014.7 |
| 20260507092731 | 37 | 0 | 0.0 | 0.0 | 0.00 | 0.00 | 0.00 | 99 | 1014.7 |
| 20260507092231 | 38 | 0 | 0.0 | 0.0 | 0.00 | 0.00 | 0.00 | 99 | 1014.6 |
| 20260507091732 | 38 | 119 | 0.0 | 0.9 | 0.00 | 0.00 | 0.00 | 100 | 1014.6 |
| 20260507091231 | 38 | 0 | 0.0 | 0.0 | 0.00 | 0.00 | 0.00 | 100 | 1014.6 |
| 20260507090732 | 38 | 0 | 0.0 | 0.0 | 0.00 | 0.00 | 0.00 | 100 | 1014.5 |
| 20260507090232 | 38 | 95 | 0.0 | 0.0 | 0.00 | 0.00 | 0.00 | 100 | 1014.5 |
| 20260507085731 | 38 | 121 | 0.0 | 0.9 | 0.00 | 0.00 | 0.00 | 100 | 1014.5 |
| 20260507085231 | 38 | 132 | 0.0 | 0.9 | 0.00 | 0.00 | 0.00 | 100 | 1014.5 |
| 20260507084736 | 38 | 0 | 0.0 | 0.0 | 0.00 | 0.00 | 0.00 | 100 | 1014.4 |
| 20260507084233 | 38 | 0 | 0.0 | 0.0 | 0.00 | 0.00 | 0.00 | 100 | 1014.4 |
| 20260507083732 | 39 | 78 | 0.0 | 0.9 | 0.00 | 0.00 | 0.00 | 100 | 1014.4 |
| 20260507083231 | 39 | 131 | 0.0 | 0.9 | 0.00 | 0.00 | 0.00 | 100 | 1014.4 |
| 20260507082731 | 39 | 144 | 0.0 | 0.9 | 0.00 | 0.00 | 0.00 | 100 | 1014.4 |
| 20260507082234 | 39 | 169 | 0.0 | 0.9 | 0.00 | 0.00 | 0.00 | 100 | 1014.4 |
| 20260507081733 | 39 | 177 | 0.9 | 1.7 | 0.00 | 0.00 | 0.00 | 100 | 1014.3 |
| 20260507081231 | 39 | 156 | 0.9 | 1.7 | 0.00 | 0.00 | 0.00 | 100 | 1014.3 |
| 20260507080732 | 39 | 158 | 0.9 | 1.7 | 0.00 | 0.00 | 0.00 | 99 | 1014.3 |
| 20260507080232 | 39 | 0 | 0.0 | 0.0 | 0.00 | 0.00 | 0.00 | 99 | 1014.3 |
| 20260507075731 | 39 | 157 | 0.0 | 0.9 | 0.00 | 0.00 | 0.00 | 99 | 1014.2 |
| 20260507075232 | 39 | 339 | 0.0 | 0.0 | 0.00 | 0.00 | 0.00 | 99 | 1014.3 |
| 20260507074732 | 40 | 140 | 0.0 | 0.9 | 0.00 | 0.00 | 0.00 | 99 | 1014.3 |
| 20260507074231 | 40 | 147 | 0.0 | 0.9 | 0.00 | 0.00 | 0.00 | 99 | 1014.3 |
| 20260507073732 | 40 | 163 | 0.0 | 1.7 | 0.00 | 0.00 | 0.00 | 99 | 1014.3 |
| 20260507073231 | 41 | 0 | 0.0 | 0.0 | 0.00 | 0.00 | 0.00 | 99 | 1014.3 |
| 20260507072731 | 41 | 0 | 0.0 | 0.0 | 0.00 | 0.00 | 0.00 | 99 | 1014.3 |
| 20260507072231 | 41 | 0 | 0.0 | 0.0 | 0.00 | 0.00 | 0.00 | 99 | 1014.3 |
| 20260507071732 | 40 | 0 | 0.0 | 0.0 | 0.00 | 0.00 | 0.00 | 99 | 1014.3 |
| 20260507071232 | 40 | 192 | 0.0 | 0.9 | 0.00 | 0.00 | 0.00 | 99 | 1014.4 |
| 20260507070734 | 41 | 202 | 0.0 | 0.9 | 0.00 | 0.00 | 0.00 | 99 | 1014.4 |
| 20260507070232 | 41 | 176 | 0.0 | 0.9 | 0.00 | 0.00 | 0.00 | 99 | 1014.4 |
| 20260507065732 | 41 | 0 | 0.0 | 0.0 | 0.00 | 0.00 | 0.00 | 99 | 1014.4 |
| 20260507065231 | 41 | 0 | 0.0 | 0.0 | 0.00 | 0.00 | 0.00 | 99 | 1014.4 |
| 20260507064731 | 40 | 0 | 0.0 | 0.0 | 0.00 | 0.00 | 0.00 | 99 | 1014.4 |
| 20260507064234 | 41 | 139 | 0.0 | 0.9 | 0.00 | 0.00 | 0.00 | 99 | 1014.5 |
| 20260507063731 | 41 | 158 | 0.0 | 0.9 | 0.00 | 0.00 | 0.00 | 99 | 1014.6 |
| 20260507063232 | 41 | 203 | 0.0 | 0.9 | 0.00 | 0.00 | 0.00 | 99 | 1014.6 |
| 20260507062733 | 41 | 183 | 0.0 | 0.9 | 0.00 | 0.00 | 0.00 | 98 | 1014.6 |
| 20260507062231 | 41 | 147 | 0.0 | 0.9 | 0.00 | 0.00 | 0.00 | 98 | 1014.6 |
| 20260507061731 | 41 | 0 | 0.0 | 0.0 | 0.00 | 0.00 | 0.00 | 98 | 1014.5 |
| 20260507061234 | 42 | 0 | 0.0 | 0.0 | 0.00 | 0.00 | 0.00 | 98 | 1014.5 |
| 20260507060731 | 41 | 0 | 0.0 | 0.0 | 0.00 | 0.00 | 0.00 | 98 | 1014.5 |
| 20260507060232 | 41 | 0 | 0.0 | 0.0 | 0.00 | 0.00 | 0.00 | 98 | 1014.5 |
| 20260507055731 | 42 | 0 | 0.0 | 0.0 | 0.00 | 0.00 | 0.00 | 98 | 1014.6 |
| 20260507055231 | 42 | 168 | 0.0 | 0.9 | 0.00 | 0.00 | 0.00 | 98 | 1014.6 |
| 20260507054731 | 42 | 0 | 0.0 | 0.0 | 0.00 | 0.00 | 0.00 | 98 | 1014.6 |
| 20260507054231 | 42 | 0 | 0.0 | 0.0 | 0.00 | 0.00 | 0.00 | 98 | 1014.6 |
| 20260507053731 | 42 | 69 | 0.0 | 0.0 | 0.00 | 0.00 | 0.00 | 98 | 1014.6 |
| 20260507053231 | 42 | 73 | 0.0 | 0.9 | 0.00 | 0.00 | 0.00 | 98 | 1014.7 |
| 20260507052732 | 42 | 66 | 0.0 | 0.9 | 0.00 | 0.00 | 0.00 | 98 | 1014.6 |
| 20260507052231 | 43 | 0 | 0.0 | 0.0 | 0.00 | 0.00 | 0.00 | 98 | 1014.6 |
| 20260507051731 | 43 | 0 | 0.0 | 0.0 | 0.00 | 0.00 | 0.00 | 97 | 1014.7 |
| 20260507051231 | 43 | 65 | 0.0 | 0.9 | 0.00 | 0.00 | 0.00 | 97 | 1014.7 |
| 20260507050734 | 43 | 46 | 0.0 | 0.9 | 0.00 | 0.00 | 0.00 | 97 | 1014.8 |
| 20260507050232 | 43 | 45 | 0.0 | 0.9 | 0.00 | 0.00 | 0.00 | 97 | 1014.8 |
| 20260507045731 | 43 | 0 | 0.0 | 0.0 | 0.00 | 0.00 | 0.00 | 97 | 1014.9 |
| 20260507045231 | 43 | 0 | 0.0 | 0.0 | 0.00 | 0.00 | 0.00 | 97 | 1014.9 |
| 20260507044731 | 43 | 108 | 0.0 | 0.0 | 0.00 | 0.00 | 0.00 | 97 | 1014.9 |
| 20260507044231 | 43 | 0 | 0.0 | 0.0 | 0.00 | 0.00 | 0.00 | 97 | 1014.8 |
| 20260507043731 | 43 | 139 | 0.0 | 0.0 | 0.00 | 0.00 | 0.00 | 96 | 1014.8 |
| 20260507043231 | 44 | 133 | 0.0 | 0.9 | 0.00 | 0.00 | 0.00 | 96 | 1014.7 |
| 20260507042731 | 44 | 0 | 0.0 | 0.0 | 0.00 | 0.00 | 0.00 | 96 | 1014.6 |
| 20260507042231 | 44 | 52 | 0.0 | 0.9 | 0.00 | 0.00 | 0.00 | 96 | 1014.7 |
| 20260507041731 | 44 | 0 | 0.0 | 0.0 | 0.00 | 0.00 | 0.00 | 96 | 1014.7 |
| 20260507041232 | 44 | 0 | 0.0 | 0.0 | 0.00 | 0.00 | 0.00 | 96 | 1014.8 |
| 20260507040732 | 44 | 0 | 0.0 | 0.0 | 0.00 | 0.00 | 0.00 | 96 | 1014.7 |
| 20260507040231 | 44 | 82 | 0.0 | 0.9 | 0.00 | 0.00 | 0.00 | 96 | 1014.7 |
| 20260507035731 | 44 | 49 | 1.7 | 2.6 | 0.00 | 0.00 | 0.56 | 95 | 1014.6 |
| 20260507035231 | 44 | 0 | 0.0 | 0.0 | 0.00 | 0.00 | 0.56 | 95 | 1014.6 |
| 20260507034732 | 44 | 51 | 0.9 | 1.7 | 0.00 | 0.00 | 0.56 | 95 | 1014.6 |
| 20260507034231 | 44 | 0 | 0.0 | 0.0 | 0.00 | 0.00 | 0.56 | 95 | 1014.7 |
| 20260507033731 | 44 | 0 | 0.0 | 0.0 | 0.00 | 0.00 | 0.56 | 95 | 1014.7 |
| 20260507033231 | 45 | 0 | 0.0 | 0.0 | 0.00 | 0.00 | 0.56 | 94 | 1014.6 |
| 20260507032731 | 45 | 76 | 0.0 | 0.9 | 0.00 | 0.00 | 0.56 | 94 | 1014.6 |
| 20260507032231 | 45 | 0 | 0.0 | 0.0 | 0.00 | 0.00 | 0.56 | 94 | 1014.7 |
| 20260507031731 | 45 | 77 | 0.9 | 1.7 | 0.00 | 0.00 | 0.56 | 94 | 1014.7 |
| 20260507031234 | 46 | 57 | 0.9 | 1.7 | 0.00 | 0.00 | 0.56 | 93 | 1014.7 |
| 20260507030732 | 46 | 78 | 0.0 | 0.9 | 0.00 | 0.00 | 0.56 | 93 | 1014.8 |
| 20260507030233 | 46 | 126 | 0.0 | 1.7 | 0.00 | 0.00 | 0.56 | 92 | 1014.8 |
| 20260507025732 | 46 | 79 | 0.0 | 1.7 | 0.00 | 0.00 | 0.56 | 92 | 1014.8 |
| 20260507025231 | 46 | 94 | 0.0 | 0.9 | 0.00 | 0.00 | 0.56 | 92 | 1014.8 |
| 20260507024733 | 47 | 111 | 0.0 | 0.0 | 0.00 | 0.00 | 0.56 | 91 | 1014.9 |
| 20260507024231 | 47 | 71 | 0.0 | 1.7 | 0.00 | 0.00 | 0.56 | 91 | 1014.8 |
| 20260507023731 | 47 | 80 | 0.0 | 0.9 | 0.00 | 0.00 | 0.56 | 91 | 1014.8 |
| 20260507023232 | 48 | 0 | 0.0 | 0.0 | 0.00 | 0.00 | 0.56 | 91 | 1014.8 |
| 20260507022731 | 48 | 38 | 0.0 | 0.9 | 0.00 | 0.00 | 0.56 | 90 | 1014.8 |
| 20260507022231 | 48 | 52 | 0.0 | 0.9 | 0.00 | 0.00 | 0.56 | 90 | 1014.8 |
| 20260507021731 | 47 | 0 | 0.0 | 0.0 | 0.00 | 0.00 | 0.56 | 89 | 1014.8 |
| 20260507021231 | 48 | 0 | 0.0 | 0.0 | 0.00 | 0.00 | 0.56 | 89 | 1014.7 |
| 20260507020731 | 48 | 0 | 0.0 | 0.0 | 0.00 | 0.00 | 0.56 | 89 | 1014.6 |
| 20260507020231 | 48 | 0 | 0.0 | 0.0 | 0.00 | 0.00 | 0.56 | 88 | 1014.6 |
| 20260507015731 | 48 | 0 | 0.0 | 0.0 | 0.00 | 0.00 | 0.56 | 87 | 1014.5 |
| 20260507015238 | 48 | 0 | 0.0 | 0.0 | 0.00 | 0.00 | 0.56 | 86 | 1014.5 |
| 20260507014731 | 48 | 137 | 0.0 | 0.9 | 0.00 | 0.00 | 0.56 | 86 | 1014.4 |
| 20260507014232 | 49 | 196 | 0.0 | 0.9 | 0.00 | 0.00 | 0.56 | 85 | 1014.4 |
| 20260507013731 | 49 | 0 | 0.0 | 0.0 | 0.00 | 0.00 | 0.56 | 84 | 1014.3 |
| 20260507013231 | 49 | 184 | 0.9 | 0.9 | 0.00 | 0.00 | 0.56 | 83 | 1014.3 |
| 20260507012731 | 50 | 0 | 0.0 | 0.0 | 0.00 | 0.00 | 0.56 | 82 | 1014.2 |
| 20260507012234 | 50 | 15 | 0.0 | 0.0 | 0.00 | 0.00 | 0.56 | 81 | 1014.2 |
| 20260507011731 | 50 | 338 | 0.0 | 0.9 | 0.00 | 0.00 | 0.56 | 80 | 1014.1 |
| 20260507011231 | 50 | 70 | 0.0 | 0.0 | 0.00 | 0.00 | 0.56 | 79 | 1014.2 |
| 20260507010731 | 51 | 0 | 0.0 | 0.0 | 0.00 | 0.00 | 0.56 | 75 | 1014.1 |
| 20260507010234 | 51 | 0 | 0.0 | 0.0 | 0.00 | 0.00 | 0.56 | 74 | 1014.2 |
| 20260507005731 | 52 | 0 | 0.0 | 0.0 | 0.00 | 0.00 | 0.56 | 73 | 1014.2 |
| 20260507005231 | 52 | 322 | 0.0 | 0.9 | 0.00 | 0.00 | 0.56 | 73 | 1014.1 |
| 20260507004731 | 53 | 0 | 0.0 | 0.0 | 0.00 | 0.00 | 0.56 | 71 | 1014.1 |
| 20260507004232 | 53 | 202 | 0.0 | 0.9 | 0.00 | 0.00 | 0.56 | 70 | 1014.1 |
| 20260507003731 | 53 | 0 | 0.0 | 0.0 | 0.00 | 0.00 | 0.56 | 69 | 1014.1 |
| 20260507003231 | 54 | 0 | 0.0 | 0.0 | 0.00 | 0.00 | 0.56 | 68 | 1014.0 |
| 20260507002731 | 54 | 0 | 0.0 | 0.0 | 0.00 | 0.00 | 0.56 | 67 | 1014.0 |
| 20260507002232 | 54 | 0 | 0.0 | 0.0 | 0.00 | 0.00 | 0.56 | 66 | 1013.9 |
| 20260507001731 | 55 | 0 | 0.0 | 0.0 | 0.00 | 0.00 | 0.56 | 65 | 1013.8 |
| 20260507001232 | 55 | 0 | 0.0 | 0.0 | 0.00 | 0.00 | 0.56 | 64 | 1013.7 |
| 20260507000731 | 55 | 0 | 0.0 | 0.0 | 0.00 | 0.00 | 0.56 | 61 | 1013.6 |
| 20260507000233 | 56 | 176 | 0.0 | 0.9 | 0.00 | 0.00 | 0.56 | 60 | 1013.6 |
| 20260506235732 | 56 | 33 | 0.0 | 0.9 | 0.00 | 0.00 | 0.56 | 60 | 1013.7 |
| 20260506235231 | 56 | 90 | 0.9 | 1.7 | 0.00 | 0.00 | 0.56 | 59 | 1013.5 |
| 20260506234732 | 56 | 0 | 0.0 | 0.0 | 0.00 | 0.00 | 0.56 | 59 | 1013.6 |
| 20260506234231 | 56 | 166 | 0.9 | 2.6 | 0.00 | 0.00 | 0.56 | 57 | 1013.7 |
| 20260506233732 | 57 | 240 | 1.7 | 2.6 | 0.00 | 0.00 | 0.56 | 57 | 1013.6 |
| 20260506233233 | 57 | 123 | 0.0 | 1.7 | 0.00 | 0.00 | 0.56 | 57 | 1013.6 |
| 20260506232732 | 57 | 0 | 1.7 | 3.5 | 0.00 | 0.00 | 0.56 | 56 | 1013.6 |
| 20260506232231 | 58 | 342 | 3.5 | 5.2 | 0.00 | 0.00 | 0.56 | 57 | 1013.4 |
| 20260506231731 | 58 | 12 | 0.9 | 1.7 | 0.00 | 0.00 | 0.56 | 59 | 1013.4 |
| 20260506231231 | 58 | 15 | 0.9 | 2.6 | 0.00 | 0.00 | 0.56 | 58 | 1013.4 |
| 20260506230731 | 58 | 239 | 0.0 | 0.9 | 0.00 | 0.00 | 0.56 | 57 | 1013.5 |
| 20260506230231 | 58 | 101 | 0.9 | 2.6 | 0.00 | 0.00 | 0.56 | 57 | 1013.4 |
| 20260506225732 | 58 | 357 | 2.6 | 5.2 | 0.00 | 0.00 | 0.56 | 56 | 1013.5 |
| 20260506225232 | 57 | 222 | 2.6 | 3.5 | 0.00 | 0.00 | 0.56 | 58 | 1013.6 |
| 20260506224732 | 57 | 248 | 0.9 | 1.7 | 0.00 | 0.00 | 0.56 | 58 | 1013.5 |
| 20260506224232 | 57 | 186 | 0.9 | 1.7 | 0.00 | 0.00 | 0.56 | 58 | 1013.5 |
| 20260506223731 | 57 | 25 | 0.9 | 2.6 | 0.00 | 0.00 | 0.56 | 57 | 1013.6 |
| 20260506223231 | 57 | 253 | 1.7 | 3.5 | 0.00 | 0.00 | 0.56 | 58 | 1013.7 |
| 20260506222731 | 57 | 22 | 0.0 | 0.0 | 0.00 | 0.00 | 0.56 | 58 | 1013.6 |
| 20260506222231 | 57 | 162 | 0.0 | 0.9 | 0.00 | 0.00 | 0.56 | 59 | 1013.8 |
| 20260506221731 | 57 | 222 | 0.9 | 2.6 | 0.00 | 0.00 | 0.56 | 58 | 1013.8 |
| 20260506221232 | 57 | 239 | 1.7 | 2.6 | 0.00 | 0.00 | 0.56 | 57 | 1013.8 |
| 20260506220732 | 57 | 230 | 2.6 | 3.5 | 0.00 | 0.00 | 0.56 | 56 | 1013.8 |
| 20260506220234 | 57 | 17 | 1.7 | 2.6 | 0.00 | 0.00 | 0.56 | 57 | 1013.9 |
| 20260506215731 | 58 | 232 | 1.7 | 3.5 | 0.00 | 0.00 | 0.56 | 56 | 1013.8 |
| 20260506215232 | 58 | 223 | 1.7 | 2.6 | 0.00 | 0.00 | 0.56 | 58 | 1013.8 |
| 20260506214731 | 57 | 104 | 0.9 | 1.7 | 0.00 | 0.00 | 0.56 | 58 | 1013.8 |
| 20260506214231 | 57 | 316 | 0.9 | 3.5 | 0.00 | 0.00 | 0.56 | 58 | 1013.7 |
| 20260506213733 | 57 | 235 | 1.7 | 1.7 | 0.00 | 0.00 | 0.56 | 57 | 1013.7 |
| 20260506213231 | 58 | 38 | 0.9 | 1.7 | 0.00 | 0.00 | 0.56 | 55 | 1013.8 |
| 20260506212731 | 58 | 216 | 2.6 | 4.3 | 0.00 | 0.00 | 0.56 | 55 | 1013.7 |
| 20260506212231 | 58 | 6 | 1.7 | 4.3 | 0.00 | 0.00 | 0.56 | 54 | 1013.7 |
| 20260506211732 | 58 | 205 | 0.9 | 1.7 | 0.00 | 0.00 | 0.56 | 55 | 1013.5 |
| 20260506211232 | 58 | 0 | 2.6 | 3.5 | 0.00 | 0.00 | 0.56 | 55 | 1013.4 |
| 20260506210732 | 58 | 1 | 0.9 | 4.3 | 0.00 | 0.00 | 0.56 | 55 | 1013.4 |
| 20260506210231 | 58 | 279 | 0.9 | 1.7 | 0.00 | 0.00 | 0.56 | 54 | 1013.4 |
| 20260506205731 | 58 | 1 | 1.7 | 2.6 | 0.00 | 0.00 | 0.56 | 55 | 1013.3 |
| 20260506205231 | 58 | 219 | 1.7 | 2.6 | 0.00 | 0.00 | 0.56 | 56 | 1013.3 |
| 20260506204731 | 58 | 8 | 1.7 | 4.3 | 0.00 | 0.00 | 0.56 | 56 | 1013.4 |
| 20260506204232 | 58 | 233 | 0.0 | 0.9 | 0.00 | 0.00 | 0.56 | 57 | 1013.3 |
| 20260506203731 | 58 | 356 | 0.9 | 1.7 | 0.00 | 0.00 | 0.56 | 56 | 1013.4 |
| 20260506203231 | 58 | 358 | 1.7 | 3.5 | 0.00 | 0.00 | 0.56 | 56 | 1013.5 |
| 20260506202731 | 58 | 317 | 1.7 | 1.7 | 0.00 | 0.00 | 0.56 | 56 | 1013.5 |
| 20260506202231 | 58 | 0 | 0.0 | 0.0 | 0.00 | 0.00 | 0.56 | 57 | 1013.5 |
| 20260506201733 | 58 | 307 | 1.7 | 4.3 | 0.00 | 0.00 | 0.56 | 55 | 1013.4 |
| 20260506201231 | 58 | 7 | 1.7 | 4.3 | 0.00 | 0.00 | 0.56 | 56 | 1013.4 |
| 20260506200732 | 58 | 1 | 1.7 | 2.6 | 0.00 | 0.00 | 0.56 | 56 | 1013.5 |
| 20260506200232 | 58 | 336 | 2.6 | 4.3 | 0.00 | 0.00 | 0.56 | 56 | 1013.4 |
| 20260506195731 | 58 | 355 | 0.9 | 2.6 | 0.00 | 0.00 | 0.56 | 54 | 1013.4 |
| 20260506195232 | 58 | 220 | 1.7 | 2.6 | 0.00 | 0.00 | 0.56 | 55 | 1013.4 |
| 20260506194731 | 58 | 332 | 2.6 | 6.1 | 0.00 | 0.00 | 0.56 | 56 | 1013.3 |
| 20260506194232 | 59 | 1 | 1.7 | 2.6 | 0.00 | 0.00 | 0.56 | 56 | 1013.3 |
| 20260506193731 | 58 | 10 | 2.6 | 3.5 | 0.00 | 0.00 | 0.56 | 55 | 1013.3 |
| 20260506193231 | 59 | 312 | 1.7 | 3.5 | 0.00 | 0.00 | 0.56 | 54 | 1013.3 |
| 20260506192731 | 59 | 344 | 1.7 | 3.5 | 0.00 | 0.00 | 0.56 | 54 | 1013.1 |
| 20260506192234 | 59 | 296 | 1.7 | 5.2 | 0.00 | 0.00 | 0.56 | 56 | 1012.9 |
| 20260506191731 | 59 | 223 | 1.7 | 3.5 | 0.00 | 0.00 | 0.56 | 55 | 1013.0 |
| 20260506191231 | 59 | 210 | 1.7 | 3.5 | 0.00 | 0.00 | 0.56 | 55 | 1013.1 |
| 20260506190735 | 58 | 30 | 2.6 | 4.3 | 0.00 | 0.00 | 0.56 | 56 | 1013.0 |
| 20260506190233 | 58 | 336 | 3.5 | 6.1 | 0.00 | 0.00 | 0.56 | 54 | 1013.0 |
| 20260506185732 | 58 | 242 | 1.7 | 2.6 | 0.00 | 0.00 | 0.56 | 55 | 1013.0 |
| 20260506185232 | 59 | 346 | 1.7 | 3.5 | 0.00 | 0.00 | 0.56 | 56 | 1013.1 |
| 20260506184732 | 59 | 36 | 0.9 | 1.7 | 0.00 | 0.00 | 0.56 | 56 | 1013.3 |
| 20260506184231 | 58 | 212 | 1.7 | 2.6 | 0.00 | 0.00 | 0.56 | 55 | 1013.0 |
| 20260506183735 | 59 | 9 | 1.7 | 3.5 | 0.00 | 0.00 | 0.56 | 56 | 1012.9 |
| 20260506183232 | 59 | 267 | 1.7 | 3.5 | 0.00 | 0.00 | 0.56 | 56 | 1012.9 |
| 20260506182731 | 59 | 1 | 1.7 | 5.2 | 0.00 | 0.00 | 0.56 | 56 | 1012.9 |
| 20260506182232 | 59 | 31 | 1.7 | 3.5 | 0.00 | 0.00 | 0.56 | 55 | 1012.8 |
| 20260506181732 | 59 | 2 | 3.5 | 4.3 | 0.00 | 0.00 | 0.56 | 55 | 1012.9 |
| 20260506181232 | 59 | 14 | 3.5 | 5.2 | 0.00 | 0.00 | 0.56 | 54 | 1013.0 |
| 20260506180732 | 59 | 358 | 1.7 | 2.6 | 0.00 | 0.00 | 0.56 | 56 | 1013.1 |
| 20260506180232 | 59 | 296 | 0.9 | 3.5 | 0.00 | 0.00 | 0.56 | 59 | 1013.0 |
| 20260506175731 | 59 | 8 | 3.5 | 5.2 | 0.00 | 0.00 | 0.56 | 57 | 1013.0 |
| 20260506175233 | 59 | 11 | 1.7 | 3.5 | 0.00 | 0.00 | 0.56 | 57 | 1013.3 |
| 20260506174732 | 59 | 353 | 2.6 | 4.3 | 0.00 | 0.00 | 0.56 | 59 | 1013.4 |
| 20260506174233 | 59 | 358 | 4.3 | 7.0 | 0.00 | 0.00 | 0.56 | 56 | 1013.4 |
| 20260506173731 | 59 | 309 | 1.7 | 4.3 | 0.00 | 0.00 | 0.56 | 57 | 1013.6 |
| 20260506173231 | 59 | 268 | 2.6 | 6.1 | 0.00 | 0.00 | 0.56 | 58 | 1013.5 |
| 20260506172731 | 59 | 7 | 3.5 | 5.2 | 0.00 | 0.00 | 0.56 | 57 | 1013.3 |
| 20260506172231 | 58 | 187 | 1.7 | 3.5 | 0.00 | 0.00 | 0.56 | 59 | 1013.4 |
| 20260506171732 | 58 | 20 | 3.5 | 5.2 | 0.00 | 0.00 | 0.56 | 58 | 1013.5 |
| 20260506171234 | 58 | 206 | 2.6 | 5.2 | 0.00 | 0.00 | 0.56 | 62 | 1013.5 |
| 20260506170731 | 58 | 28 | 1.7 | 3.5 | 0.00 | 0.00 | 0.56 | 59 | 1013.6 |
| 20260506170232 | 58 | 1 | 0.9 | 2.6 | 0.00 | 0.00 | 0.56 | 62 | 1013.6 |
| 20260506165733 | 58 | 322 | 0.9 | 1.7 | 0.00 | 0.00 | 0.56 | 60 | 1013.6 |
| 20260506165231 | 58 | 133 | 1.7 | 2.6 | 0.00 | 0.00 | 0.56 | 61 | 1013.7 |
| 20260506164732 | 57 | 28 | 1.7 | 3.5 | 0.00 | 0.00 | 0.56 | 64 | 1013.7 |
| 20260506164234 | 57 | 222 | 1.7 | 3.5 | 0.00 | 0.00 | 0.56 | 62 | 1013.6 |
| 20260506163732 | 57 | 5 | 0.9 | 2.6 | 0.00 | 0.00 | 0.56 | 62 | 1013.7 |
| 20260506163231 | 57 | 328 | 0.9 | 2.6 | 0.00 | 0.00 | 0.56 | 62 | 1013.8 |
| 20260506162735 | 56 | 39 | 1.7 | 4.3 | 0.00 | 0.00 | 0.56 | 64 | 1013.6 |
| 20260506162233 | 57 | 7 | 3.5 | 4.3 | 0.00 | 0.00 | 0.56 | 64 | 1013.7 |
| 20260506161731 | 56 | 254 | 1.7 | 5.2 | 0.00 | 0.00 | 0.56 | 64 | 1013.6 |
| 20260506161234 | 56 | 303 | 1.7 | 4.3 | 0.00 | 0.00 | 0.56 | 66 | 1013.5 |
| 20260506160733 | 55 | 29 | 1.7 | 4.3 | 0.00 | 0.00 | 0.56 | 66 | 1013.5 |
| 20260506160235 | 55 | 20 | 1.7 | 4.3 | 0.00 | 0.00 | 0.56 | 66 | 1013.5 |
| 20260506155732 | 54 | 348 | 3.5 | 9.6 | 0.00 | 0.00 | 0.56 | 65 | 1013.6 |
| 20260506155231 | 55 | 348 | 3.5 | 7.0 | 0.00 | 0.00 | 0.56 | 66 | 1013.5 |
| 20260506154733 | 55 | 286 | 2.6 | 4.3 | 0.00 | 0.00 | 0.56 | 67 | 1013.4 |
| 20260506154231 | 55 | 3 | 1.7 | 3.5 | 0.00 | 0.00 | 0.56 | 68 | 1013.4 |
| 20260506153733 | 55 | 0 | 0.0 | 0.9 | 0.00 | 0.00 | 0.56 | 67 | 1013.6 |
| 20260506153231 | 54 | 207 | 0.9 | 2.6 | 0.00 | 0.00 | 0.56 | 70 | 1013.8 |
| 20260506152734 | 54 | 12 | 1.7 | 3.5 | 0.00 | 0.00 | 0.56 | 68 | 1013.9 |
| 20260506152235 | 54 | 2 | 0.9 | 2.6 | 0.00 | 0.00 | 0.56 | 68 | 1013.9 |
| 20260506151734 | 54 | 353 | 3.5 | 7.0 | 0.00 | 0.00 | 0.56 | 69 | 1013.7 |
| 20260506151231 | 53 | 18 | 1.7 | 3.5 | 0.00 | 0.00 | 0.56 | 69 | 1013.5 |
| 20260506150737 | 53 | 346 | 3.5 | 7.8 | 0.00 | 0.00 | 0.56 | 71 | 1013.1 |
| 20260506150231 | 53 | 27 | 1.7 | 5.2 | 0.00 | 0.00 | 0.56 | 71 | 1013.0 |
| 20260506145731 | 52 | 20 | 2.6 | 7.0 | 0.00 | 0.00 | 0.56 | 72 | 1012.9 |
| 20260506145233 | 52 | 353 | 3.5 | 6.1 | 0.00 | 0.00 | 0.56 | 73 | 1012.8 |
| 20260506144735 | 51 | 8 | 4.3 | 6.1 | 0.00 | 0.00 | 0.56 | 73 | 1012.6 |
| 20260506144233 | 51 | 8 | 4.3 | 7.0 | 0.00 | 0.00 | 0.56 | 73 | 1012.6 |
| 20260506143731 | 51 | 3 | 3.5 | 7.8 | 0.00 | 0.00 | 0.56 | 75 | 1012.5 |
| 20260506143234 | 51 | 11 | 3.5 | 5.2 | 0.00 | 0.00 | 0.56 | 76 | 1012.3 |
| 20260506142732 | 50 | 352 | 3.5 | 7.8 | 0.00 | 0.00 | 0.56 | 79 | 1012.2 |
| 20260506142232 | 50 | 38 | 1.7 | 2.6 | 0.00 | 0.00 | 0.56 | 80 | 1012.3 |
| 20260506141734 | 51 | 0 | 1.7 | 3.5 | 0.00 | 0.00 | 0.56 | 81 | 1012.5 |
| 20260506141233 | 51 | 25 | 3.5 | 7.0 | 0.00 | 0.00 | 0.56 | 82 | 1012.4 |
| 20260506140731 | 50 | 320 | 1.7 | 3.5 | 0.00 | 0.00 | 0.56 | 84 | 1012.2 |
| 20260506140232 | 50 | 18 | 1.7 | 3.5 | 0.00 | 0.00 | 0.56 | 85 | 1012.1 |
| 20260506135733 | 50 | 346 | 4.3 | 6.1 | 0.00 | 0.00 | 0.56 | 85 | 1012.1 |
| 20260506135237 | 49 | 24 | 1.7 | 5.2 | 0.00 | 0.00 | 0.56 | 86 | 1012.0 |
| 20260506134733 | 49 | 2 | 3.5 | 4.3 | 0.00 | 0.00 | 0.56 | 87 | 1012.0 |
| 20260506134231 | 49 | 2 | 2.6 | 3.5 | 0.00 | 0.00 | 0.56 | 87 | 1012.1 |
| 20260506133732 | 48 | 33 | 0.9 | 2.6 | 0.00 | 0.00 | 0.56 | 88 | 1012.2 |
| 20260506133232 | 48 | 4 | 2.6 | 3.5 | 0.00 | 0.00 | 0.56 | 88 | 1012.0 |
| 20260506132738 | 48 | 51 | 1.7 | 2.6 | 0.00 | 0.00 | 0.56 | 88 | 1012.1 |
| 20260506132231 | 48 | 80 | 0.0 | 1.7 | 0.00 | 0.00 | 0.56 | 89 | 1011.8 |
| 20260506131734 | 48 | 0 | 2.6 | 5.2 | 0.00 | 0.00 | 0.56 | 90 | 1011.7 |
| 20260506131232 | 47 | 2 | 2.6 | 4.3 | 0.00 | 0.00 | 0.56 | 89 | 1011.7 |
| 20260506130732 | 48 | 14 | 1.7 | 2.6 | 0.00 | 0.00 | 0.56 | 90 | 1011.9 |
| 20260506130231 | 48 | 227 | 0.9 | 2.6 | 0.00 | 0.00 | 0.56 | 90 | 1011.9 |
| 20260506125731 | 48 | 221 | 0.0 | 0.9 | 0.00 | 0.00 | 0.56 | 91 | 1011.8 |
| 20260506125231 | 47 | 258 | 0.9 | 1.7 | 0.00 | 0.00 | 0.56 | 91 | 1011.5 |
| 20260506124732 | 47 | 346 | 1.7 | 2.6 | 0.00 | 0.00 | 0.56 | 92 | 1011.5 |
| 20260506124232 | 47 | 339 | 0.9 | 3.5 | 0.00 | 0.00 | 0.56 | 93 | 1011.4 |
| 20260506123731 | 47 | 0 | 1.7 | 2.6 | 0.00 | 0.00 | 0.56 | 93 | 1011.4 |
| 20260506123232 | 46 | 80 | 0.9 | 1.7 | 0.00 | 0.00 | 0.56 | 93 | 1011.4 |
| 20260506122731 | 46 | 349 | 1.7 | 3.5 | 0.00 | 0.00 | 0.56 | 94 | 1011.2 |
| 20260506122232 | 46 | 10 | 0.9 | 1.7 | 0.00 | 0.00 | 0.56 | 94 | 1011.3 |
| 20260506121731 | 46 | 15 | 0.9 | 2.6 | 0.00 | 0.00 | 0.56 | 94 | 1011.2 |
| 20260506121231 | 46 | 217 | 0.9 | 1.7 | 0.00 | 0.00 | 0.56 | 95 | 1011.3 |
| 20260506120733 | 46 | 352 | 3.5 | 5.2 | 0.00 | 0.00 | 0.56 | 95 | 1010.9 |
| 20260506120232 | 46 | 332 | 0.0 | 0.9 | 0.00 | 0.00 | 0.56 | 95 | 1011.1 |
| 20260506115731 | 45 | 20 | 1.7 | 2.6 | 0.00 | 0.00 | 0.56 | 96 | 1011.0 |